Location: Cointrin
(46.2167°N, 6.1167°E)
Time: 16:14:36
(UTC+00:00)

Cosmos 1980 - Pass Details

Date: 08 February 2023
Orbit: 838 x 847 km, 71.0° (Epoch: 21 March)

Event Time Altitude Azimuth Distance (km) Brightness Sun altitude
Rises 18:49:37 0° 189° (S) 3,376 6.9 -21.0°
Reaches altitude 10° 18:52:06 10° 184° (S) 2,446 6.1 -21.4°
Maximum altitude 18:57:31 52° 110° (ESE) 1,041 3.7 -22.4°
Enters shadow 18:57:58 50° 92° (E) 1,058 3.8 -22.4°
